Theta_e
301 303 304 305 305 306 307 309 311 313 315 317 319 322 323 324 324 325 325 326 327 328 329 329 330 330 330 330 330 330 330 330 328 328 328 326 325 324 323 323 322 321 320 319 316 311 307 304 301 297 295 294 294 294 293 293 293 293 292 291 290 290
301 306 307 307 307 307 308 309 310 311 313 315 317 319 321 322 323 324 324 325 325 326 328 328 328 328 329 329 329 330 330 329 328 328 327 325 324 323 322 322 321 320 319 315 311 307 304 300 296 294 294 294 294 293 293 293 292 292 291 290 290 289
302 307 308 308 309 308 309 309 309 310 311 312 315 316 318 320 322 322 323 324 324 325 326 327 327 327 328 328 329 329 329 328 327 327 326 324 323 322 322 321 319 318 316 311 307 304 301 296 294 293 293 293 293 293 293 292 291 291 291 289 289 288
302 305 306 308 307 307 309 309 309 309 309 310 311 313 315 317 319 320 321 322 323 324 326 327 327 327 327 327 327 327 328 327 327 326 324 323 321 321 320 320 318 316 312 307 305 302 297 294 293 293 293 293 293 292 292 291 291 291 290 289 289 288
302 305 305 307 307 308 309 309 308 309 308 308 309 310 312 314 315 317 319 321 322 323 325 326 326 326 326 326 325 326 327 327 326 325 323 322 321 320 319 319 316 312 308 305 302 298 294 293 293 292 292 293 293 292 291 290 290 290 289 289 288 288
301 301 302 305 307 308 310 309 309 308 308 307 308 309 310 311 313 315 316 319 321 322 324 324 325 325 324 324 325 325 325 325 325 323 321 321 321 319 318 315 312 308 305 303 299 294 292 292 292 292 292 292 292 292 291 290 289 289 288 288 288 288
301 299 300 302 304 307 309 309 309 309 308 308 308 309 310 311 313 315 316 318 320 321 322 323 323 323 323 323 324 323 322 322 322 322 320 321 320 318 315 311 307 305 302 298 295 293 292 292 292 292 291 291 291 291 290 289 288 288 288 288 288 287
301 298 299 301 303 306 308 309 310 310 309 309 309 310 311 312 313 315 316 318 319 320 320 320 321 321 322 322 321 321 320 320 321 321 319 319 318 315 312 307 304 301 298 295 293 292 292 292 292 292 291 291 290 289 289 289 288 288 288 288 287 287
303 299 298 300 302 304 306 308 309 310 310 310 309 310 311 312 313 314 315 316 318 318 318 319 319 320 321 321 320 319 319 320 320 319 318 316 315 312 307 303 300 298 295 293 292 292 292 291 291 291 291 290 289 289 289 288 288 288 287 287 287 287
305 300 297 299 301 302 304 306 307 309 310 310 310 310 311 312 312 313 314 314 316 318 318 318 318 318 320 321 320 319 318 318 317 316 315 313 311 307 303 300 297 294 293 292 292 291 291 291 290 290 290 289 289 288 288 288 288 287 287 287 287 286
306 301 298 298 299 300 302 304 305 307 308 309 310 310 311 311 311 312 312 312 313 316 316 315 315 316 317 318 317 317 317 316 314 313 311 309 306 303 300 297 295 292 292 291 291 290 290 290 290 289 289 289 288 288 288 287 287 287 287 287 286 286
304 301 298 297 298 299 300 302 304 306 307 308 309 310 310 310 310 310 310 310 311 312 313 313 313 314 314 315 315 314 314 313 311 309 307 304 302 299 297 294 293 292 291 290 290 289 289 289 289 289 288 288 288 288 288 287 287 287 287 286 286 286
304 301 299 298 298 298 299 301 303 305 307 307 308 310 311 310 309 310 310 310 311 312 312 312 312 313 313 312 312 311 310 309 307 305 302 300 298 296 294 292 291 291 290 290 289 289 289 288 288 288 288 287 287 287 287 287 287 286 286 286 286 286
307 303 301 299 299 299 299 300 302 303 305 307 308 309 309 309 309 310 311 310 311 312 311 311 311 310 310 309 308 307 307 305 303 301 299 297 295 293 292 291 290 290 289 289 289 289 288 288 288 287 287 287 287 287 287 287 287 286 286 286 286 286
306 303 301 300 300 301 301 301 302 303 305 307 308 307 307 307 307 308 309 309 309 310 309 309 308 307 306 306 306 304 303 301 299 297 296 294 293 292 290 290 289 289 289 289 288 288 288 288 287 287 287 287 287 287 286 286 287 286 286 286 285 285
303 302 302 302 302 302 301 302 302 304 305 306 306 306 306 305 305 305 306 306 307 307 307 306 305 305 304 303 303 301 299 298 296 295 293 292 291 290 290 289 289 288 288 288 288 288 287 287 287 287 287 286 286 286 286 286 286 286 286 285 285 285
301 302 302 302 303 302 301 301 301 302 303 304 304 304 304 303 303 303 304 304 304 305 304 304 303 302 302 301 300 298 297 295 294 292 291 291 290 290 289 289 288 288 288 287 287 287 287 287 287 286 286 286 286 286 286 286 286 286 285 285 285 285
303 304 304 303 303 302 301 301 301 301 301 301 302 302 302 302 301 301 302 302 303 303 302 302 301 301 300 299 297 296 294 293 292 291 290 289 289 289 288 288 288 288 287 287 287 287 287 286 286 286 286 286 286 286 285 285 285 285 285 285 285 284
305 306 304 304 303 302 302 300 300 300 299 299 299 300 300 300 300 300 301 301 302 301 300 300 300 300 299 297 295 294 293 291 290 289 289 289 288 288 288 287 287 287 287 286 286 287 287 286 286 286 286 285 285 285 285 285 285 285 285 285 284 284
305 305 304 303 303 302 302 300 299 299 298 298 298 298 298 298 298 299 300 300 301 300 299 299 299 299 297 296 294 293 291 290 289 289 288 288 288 287 287 287 286 286 286 286 286 286 286 286 286 285 285 285 285 285 285 285 285 285 285 284 284 283
305 305 303 302 302 302 301 300 299 298 297 296 296 296 296 296 297 299 300 300 300 300 299 298 298 297 297 295 293 292 290 289 289 288 288 287 287 287 286 286 286 285 285 285 285 285 286 286 285 285 285 285 285 284 284 284 284 284 284 284 284 284
303 303 303 303 303 302 300 300 298 297 297 296 295 295 295 297 299 300 300 300 299 299 298 297 296 296 295 293 291 290 289 288 288 287 287 286 286 286 286 285 285 285 285 284 285 285 285 285 285 285 285 285 284 284 284 284 284 284 284 284 284 283
303 304 304 303 303 301 300 300 298 296 296 295 294 295 296 298 298 298 298 298 298 297 296 296 295 294 293 291 290 289 288 288 287 287 286 286 286 285 285 284 284 284 284 284 284 284 284 284 285 284 284 284 284 284 284 284 283 284 284 284 284 283
301 302 302 301 301 300 299 299 297 296 296 295 294 295 296 296 296 296 295 295 295 295 294 293 292 292 291 289 289 288 287 287 286 286 286 285 285 285 284 284 283 283 283 282 282 283 283 283 284 284 283 283 283 283 283 283 283 283 284 284 283 282
299 299 300 300 300 300 299 298 297 296 295 295 294 295 295 295 295 295 294 294 293 293 292 291 290 290 289 288 288 287 287 286 285 285 285 285 284 284 283 283 283 282 282 281 281 282 282 282 283 283 283 282 282 282 282 282 282 283 283 283 283 282
299 298 299 299 299 299 299 299 297 296 295 295 295 295 295 295 294 294 293 292 292 291 290 290 289 289 288 288 287 287 286 285 285 284 284 284 284 284 283 282 282 282 281 281 281 281 281 282 282 282 282 282 282 281 281 281 282 283 283 282 282 281
299 298 297 297 298 298 298 298 298 296 295 295 295 295 295 295 294 293 293 292 291 290 290 289 288 288 287 287 286 286 286 285 284 284 283 283 283 283 282 281 281 281 282 282 281 281 281 281 281 281 281 281 281 281 281 281 281 282 282 282 281 280
297 297 296 295 296 297 297 297 297 297 296 295 295 294 294 294 293 292 291 291 290 289 289 288 287 287 286 286 286 286 286 285 285 284 283 283 282 283 282 281 281 281 281 282 282 282 282 281 281 281 281 281 281 280 281 281 281 281 281 280 279 278
295 294 294 294 295 296 296 296 296 296 296 295 294 294 293 293 293 291 290 289 289 288 287 287 286 286 285 285 285 284 285 285 285 284 283 282 282 281 281 281 280 280 281 282 282 282 282 282 281 281 282 282 281 280 281 281 281 280 280 279 278 278
294 293 293 294 294 294 294 295 294 294 295 294 294 294 293 292 292 291 290 289 288 287 286 286 285 285 284 284 284 283 284 283 283 283 283 284 283 283 282 282 282 282 283 283 283 282 281 281 282 283 284 283 282 282 282 282 281 280 280 279 279 277
294 294 293 293 293 293 293 293 293 293 294 294 294 293 292 291 290 290 289 288 287 286 285 284 284 284 283 283 282 282 283 283 283 283 283 284 284 284 284 284 284 285 285 285 284 284 282 283 285 287 286 284 283 283 283 282 281 280 280 280 279 277
293 292 292 292 292 291 292 292 293 293 292 293 293 292 292 291 289 288 287 286 285 285 284 283 283 283 283 282 282 281 281 281 282 282 282 283 283 283 284 284 285 286 286 285 285 285 285 287 289 288 285 282 282 282 281 281 280 279 280 280 278 276
291 291 292 292 290 290 291 291 292 292 291 291 292 291 291 291 289 287 286 285 285 285 284 283 282 282 282 281 281 280 280 280 280 280 281 282 282 282 283 283 284 285 285 285 285 284 285 286 286 284 283 281 280 280 279 278 277 278 279 279 277 274
291 292 292 291 290 289 290 290 290 291 290 290 290 290 290 290 289 288 286 285 285 284 283 282 282 281 280 280 279 279 279 279 279 279 279 280 281 281 282 282 283 283 283 283 283 283 283 282 282 281 281 280 279 278 278 277 276 277 278 278 275 274
291 291 291 290 290 289 289 289 289 289 289 289 289 289 289 289 288 288 287 286 284 283 282 281 281 280 280 279 279 279 279 279 279 279 279 279 279 280 280 281 281 282 282 281 281 281 281 280 280 280 279 279 278 277 277 276 276 276 277 276 275 274
290 289 289 289 289 288 288 288 288 288 288 288 288 288 288 288 287 287 287 286 285 283 282 281 280 280 280 279 279 279 278 279 279 279 279 279 279 278 279 279 280 280 280 280 280 280 279 279 279 279 278 278 277 276 276 275 275 274 274 275 275 274
289 288 288 288 287 287 287 287 287 287 287 287 287 287 286 286 286 285 285 285 284 284 283 282 281 280 279 279 278 278 278 278 279 279 279 279 279 279 279 279 279 279 279 279 279 279 279 278 278 278 278 277 276 276 275 274 274 273 273 274 274 274
287 286 286 286 286 286 286 286 286 286 286 286 286 286 285 285 285 284 283 283 283 282 282 282 281 280 279 279 279 278 278 278 278 278 279 279 279 279 279 278 278 278 278 278 278 278 278 277 277 277 277 276 276 275 274 274 274 274 274 274 274 274
Wind_Speed
7 9 10 12 14 16 18 20 22 24 25 26 27 28 29 30 31 31 31 32 33 33 33 33 33 33 32 31 30 30 30 29 26 27 28 28 29 28 25 23 20 19 19 18 17 17 18 19 21 21 21 21 20 20 19 18 16 14 14 13 11 10
7 8 9 9 10 11 13 15 17 20 21 23 24 25 26 27 28 29 30 30 31 31 31 31 32 31 31 31 31 31 31 29 27 28 30 30 31 29 26 22 20 21 21 19 18 20 22 23 23 22 22 21 20 19 18 17 16 14 13 12 10 9
7 8 9 9 9 10 11 12 14 16 18 19 21 22 23 25 26 27 29 29 29 30 30 30 31 31 31 31 31 32 32 29 27 29 30 31 31 29 24 20 21 22 21 20 21 23 24 25 24 24 22 21 20 18 17 16 15 13 12 11 10 9
7 8 9 10 11 11 10 11 12 13 15 17 18 19 21 23 25 26 27 28 28 29 30 30 30 31 32 32 33 33 32 29 28 30 31 32 30 26 21 21 22 23 22 23 25 25 26 26 25 24 21 20 19 18 17 16 14 12 11 10 9 8
8 9 9 11 12 12 11 11 12 12 13 15 16 17 19 21 22 24 25 27 28 28 29 29 30 31 32 33 34 33 32 30 30 31 33 31 27 23 22 23 24 24 24 26 28 28 28 26 25 23 20 18 18 17 17 15 12 11 10 9 8 6
7 8 9 11 12 13 12 12 12 12 13 14 16 17 18 19 20 22 24 25 27 27 28 29 30 31 32 33 33 32 33 33 33 33 33 29 25 24 25 25 25 26 28 29 30 29 28 26 25 23 20 18 16 16 16 15 13 11 9 7 6 6
4 6 9 10 12 13 14 14 13 13 13 14 16 18 18 19 20 22 23 25 27 28 29 29 31 32 33 33 32 33 35 36 34 33 32 28 26 27 27 27 27 29 31 32 31 30 29 26 25 23 21 19 17 15 15 14 12 10 8 7 6 5
4 6 9 11 13 14 15 15 15 14 13 14 16 18 19 20 21 23 24 26 28 28 29 30 31 32 32 32 33 34 35 35 33 33 31 29 29 29 29 29 31 32 33 32 31 30 28 26 24 23 21 20 17 16 14 13 11 9 7 7 5 4
5 7 10 12 13 14 15 16 16 15 15 15 16 18 19 20 22 24 25 27 28 28 29 30 31 32 31 31 32 33 34 33 32 32 30 29 30 31 32 33 34 34 33 32 30 29 27 26 24 22 20 19 17 16 14 12 10 8 7 7 5 5
6 7 11 13 14 15 16 17 17 16 16 17 17 18 19 21 22 24 25 27 28 28 29 29 30 31 32 32 32 33 33 32 31 30 30 30 31 33 35 36 36 34 33 31 30 28 26 25 24 22 20 19 17 15 12 11 9 9 8 7 6 5
6 7 11 14 15 16 17 17 17 17 17 18 18 18 19 21 23 24 25 26 28 28 29 30 30 31 32 32 33 33 32 31 30 30 30 31 33 35 36 36 36 35 33 31 29 28 26 24 23 21 19 18 16 14 12 10 10 9 8 8 7 5
8 8 11 14 16 18 18 19 19 19 19 19 20 20 20 22 23 24 25 25 26 27 28 29 30 30 30 31 31 30 30 30 30 31 32 33 35 37 37 36 35 34 33 32 30 28 26 24 22 20 18 16 14 13 11 11 10 9 8 7 7 6
8 9 11 15 18 19 20 21 22 21 21 21 22 23 23 23 23 23 23 23 23 24 26 27 28 28 28 29 29 29 29 30 31 33 34 36 37 37 37 36 35 33 32 31 30 28 26 24 22 20 18 15 13 12 11 11 10 9 8 7 6 6
9 10 13 17 19 21 23 23 22 23 24 24 24 25 25 25 24 23 23 22 22 23 24 25 26 27 27 28 28 29 30 32 33 35 36 37 38 37 37 35 34 33 31 30 29 27 25 24 22 19 17 15 14 12 11 10 9 9 8 7 6 5
11 14 17 18 21 24 26 25 25 26 26 26 25 25 25 26 25 25 25 24 24 25 25 26 26 27 27 28 29 31 32 34 35 37 38 38 38 37 37 35 34 33 31 30 28 27 25 23 21 19 17 15 14 12 11 10 9 8 7 7 6 5
12 15 17 20 22 24 24 25 26 25 25 25 25 25 25 26 25 25 25 26 26 26 27 27 28 29 29 30 31 32 34 35 36 37 38 38 38 38 37 35 34 33 31 29 28 27 25 23 21 19 17 15 14 12 11 9 8 8 7 7 6 5
11 14 17 19 21 21 22 24 25 23 24 25 26 26 26 26 26 25 26 26 27 28 29 29 30 30 31 32 33 34 35 36 37 38 38 38 38 38 37 36 34 33 31 29 28 26 24 22 20 18 16 15 14 12 11 9 8 8 7 7 6 5
13 16 17 17 19 21 23 25 25 24 24 25 25 26 26 26 26 26 27 28 28 30 31 32 32 32 33 34 35 36 37 38 38 39 38 38 37 36 36 35 34 33 32 29 27 25 24 22 20 19 17 15 14 12 11 10 9 8 8 7 6 5
14 15 15 16 18 22 24 24 25 25 25 25 25 26 27 27 28 28 29 29 30 31 32 33 34 35 35 36 37 38 39 39 39 39 39 39 37 36 36 35 33 32 31 29 27 25 24 22 20 18 17 15 14 12 11 11 10 9 9 8 6 5
12 13 14 16 18 21 23 24 26 26 26 26 27 27 28 29 29 30 31 31 32 32 33 34 35 36 37 39 40 41 40 40 40 40 39 39 38 37 36 35 33 32 30 28 26 24 23 21 20 18 16 15 13 12 11 11 10 10 9 8 7 5
11 11 13 16 18 20 22 24 26 27 26 26 27 28 28 29 30 31 33 33 32 33 34 35 36 37 38 40 40 41 41 40 40 39 38 37 37 36 35 34 33 32 29 27 25 23 22 21 19 17 16 15 13 12 11 11 10 11 10 8 7 5
11 12 14 17 18 19 21 24 26 26 25 25 27 28 30 32 33 33 33 32 32 33 34 35 36 37 39 40 39 39 40 39 39 38 37 36 36 35 35 33 32 31 29 27 25 23 21 20 18 16 15 14 13 11 11 11 10 9 9 8 7 6
12 12 13 15 16 18 22 25 26 26 25 25 27 29 31 31 31 31 31 31 32 33 34 35 36 37 37 38 38 38 38 38 38 38 38 37 36 35 34 32 31 31 29 27 25 24 22 19 17 16 14 13 13 12 11 10 9 8 8 7 7 7
10 9 9 10 13 17 21 24 24 23 23 23 25 26 25 25 26 27 28 29 30 31 33 34 34 35 36 36 37 38 37 36 37 38 37 37 36 35 34 33 31 30 29 27 26 24 22 20 17 16 14 12 12 11 10 9 8 7 7 7 7 8
9 7 7 8 11 15 18 21 21 19 19 21 21 20 19 21 23 25 26 27 28 29 31 32 32 33 34 35 36 37 37 36 36 36 36 36 36 35 34 33 31 30 29 28 26 25 23 21 19 17 15 13 11 10 9 8 7 7 7 7 7 8
10 9 8 9 11 14 18 21 20 19 19 20 18 17 18 20 22 24 25 26 27 28 29 30 31 32 34 35 36 36 36 36 36 36 36 36 37 36 34 33 32 31 30 29 28 26 24 22 20 18 16 15 12 10 9 9 8 7 7 7 8 9
12 11 10 10 12 14 17 19 20 19 19 19 18 18 19 20 22 24 26 26 27 28 29 29 30 32 33 34 36 37 38 37 37 37 36 36 37 36 35 34 33 32 32 31 30 28 26 24 22 20 18 16 14 12 11 11 9 8 8 9 9 9
11 12 11 11 12 14 15 18 19 18 18 18 17 17 19 21 23 24 25 26 27 28 29 30 30 31 32 33 35 37 38 39 40 39 38 38 37 35 35 34 33 31 31 31 30 29 28 26 24 22 20 18 16 15 14 13 11 10 10 10 10 10
11 11 12 12 12 13 14 16 17 16 15 16 16 17 18 20 22 24 25 25 26 27 28 30 30 31 32 33 34 35 36 38 39 39 39 39 37 34 33 32 32 31 32 32 30 29 27 26 25 23 22 20 20 19 17 15 14 14 13 12 12 11
11 11 11 12 12 13 14 15 16 15 15 15 16 17 18 19 21 23 24 25 26 27 28 29 30 31 32 33 34 35 36 37 38 39 40 41 40 38 36 34 34 35 34 34 32 30 28 27 26 25 24 23 22 21 19 18 18 17 16 15 14 14
9 10 11 10 11 13 14 14 15 14 14 15 16 17 18 20 21 22 23 24 25 26 27 28 29 30 31 32 33 33 34 36 37 38 38 39 39 39 38 38 38 37 36 35 33 31 30 29 27 25 24 23 22 21 20 20 21 19 17 15 15 14
7 8 8 8 10 12 13 14 14 13 13 14 15 16 18 20 21 21 22 23 24 25 27 27 28 29 31 32 33 32 31 32 33 35 35 35 35 36 35 35 35 35 34 33 32 31 28 25 23 23 24 23 22 22 21 20 19 18 16 15 14 14
6 6 6 7 9 11 11 12 12 12 12 13 14 16 18 20 21 22 22 24 25 26 27 28 29 30 30 30 31 31 29 28 29 30 31 31 31 32 32 31 31 31 32 32 32 31 28 23 20 21 24 23 22 21 20 18 17 16 15 14 14 14
6 5 5 7 9 10 10 10 10 10 11 12 13 15 18 19 21 22 23 24 25 26 27 28 28 28 28 28 28 29 28 27 26 26 27 27 27 28 29 29 29 29 29 29 30 29 27 22 19 20 22 22 21 20 18 17 17 16 15 14 13 14
6 6 6 7 8 8 9 9 9 10 10 11 13 15 17 19 20 21 22 23 24 24 26 27 27 28 29 29 29 30 29 29 28 27 26 24 23 24 25 26 26 26 25 24 25 25 23 20 18 20 22 21 20 19 19 19 18 17 16 15 15 16
7 7 6 6 7 7 7 8 8 9 9 10 12 14 16 17 19 19 20 21 22 24 25 27 27 28 29 30 30 30 30 30 29 28 27 25 23 22 22 23 23 23 22 22 22 23 22 20 19 20 21 20 20 20 19 19 17 16 16 16 16 16
6 6 6 5 5 6 6 6 7 7 8 10 11 13 15 16 18 18 19 19 20 22 24 26 28 29 29 29 30 30 30 29 28 26 27 28 27 26 25 24 22 22 22 22 22 23 23 21 20 20 20 20 20 20 20 19 19 19 19 19 18 17
5 5 4 4 4 4 4 4 5 6 7 9 10 12 14 16 17 18 18 18 19 21 23 25 26 28 29 30 30 30 29 29 27 26 26 27 27 25 25 24 23 22 21 21 22 23 23 21 21 21 21 20 20 20 21 23 23 23 22 21 19 18
Wind_Direction
222 216 215 222 222 222 221 219 218 218 218 219 218 218 217 218 218 216 215 215 215 216 215 215 216 217 217 216 214 212 207 203 204 207 206 203 200 198 198 200 202 207 212 213 210 198 182 171 165 160 157 155 151 147 143 141 144 147 144 141 138 131
216 202 199 205 206 211 212 210 212 212 215 216 217 218 218 218 218 216 215 216 215 215 214 214 214 213 214 213 211 209 205 203 206 209 206 199 194 193 193 196 206 212 209 204 196 182 171 166 163 160 159 156 152 149 146 145 150 153 146 141 138 130
214 193 189 189 188 197 200 201 205 206 210 212 213 215 215 216 217 216 216 215 214 214 213 212 212 211 211 210 208 207 203 202 207 208 202 195 191 190 190 199 208 208 201 193 183 175 169 166 163 160 160 157 152 150 150 151 154 154 146 142 139 132
212 195 186 182 184 193 196 198 203 204 207 209 211 213 214 215 215 213 213 213 212 212 212 211 209 208 208 206 204 202 200 202 205 202 196 191 188 188 195 206 205 199 193 184 176 172 169 166 162 161 161 159 156 153 153 154 155 153 147 144 141 135
207 201 192 187 188 193 197 204 210 213 214 212 211 212 213 214 213 211 210 209 209 209 208 208 206 205 204 202 200 198 198 201 199 195 192 187 186 192 202 206 200 191 185 179 174 171 168 165 163 161 161 162 162 159 155 153 155 154 149 148 143 134
202 203 199 193 192 195 200 208 212 217 221 218 214 214 214 212 210 208 207 205 206 206 204 204 203 201 200 198 197 198 197 194 190 189 189 187 192 200 199 197 192 185 179 175 172 169 167 165 163 161 162 164 164 162 157 155 157 157 151 147 138 126
202 209 208 201 198 198 201 205 207 212 220 219 215 214 213 211 208 206 205 203 202 201 200 201 200 198 197 196 196 196 192 185 183 187 189 191 198 198 191 188 184 179 175 172 171 168 167 167 165 164 164 163 163 163 161 159 160 157 149 141 132 125
214 216 216 211 207 203 203 205 205 209 218 217 215 214 211 208 206 204 201 199 197 196 196 196 195 193 194 194 192 189 185 181 183 188 192 196 197 191 185 183 179 175 173 172 170 169 168 168 168 169 168 164 164 165 164 162 159 152 144 137 131 129
222 220 219 217 215 210 208 208 206 206 211 211 211 212 210 206 203 200 197 195 193 192 191 191 191 189 189 190 188 185 183 184 187 191 192 194 192 186 181 178 175 173 173 171 170 170 170 169 169 170 168 166 167 167 165 162 155 148 144 140 138 136
226 220 221 220 218 215 211 211 209 206 208 209 208 208 207 204 200 197 194 191 190 190 189 189 189 187 186 187 187 186 186 187 189 190 190 189 187 183 178 175 173 171 171 170 170 170 170 170 170 170 170 168 167 168 165 160 155 152 149 146 144 139
229 218 219 218 215 214 211 209 210 207 205 205 205 206 204 201 197 194 192 188 187 188 188 186 186 185 184 185 185 185 186 187 187 187 186 184 181 178 175 174 172 170 169 169 170 170 170 171 171 172 173 171 168 168 165 160 158 157 153 149 145 141
229 222 221 218 214 212 208 206 207 206 204 203 201 203 204 198 193 191 189 186 185 184 184 183 183 183 183 183 183 184 186 187 186 184 181 179 177 175 173 172 171 171 170 170 169 169 169 170 171 172 172 172 171 170 167 164 161 157 155 152 148 146
229 223 221 219 215 211 208 206 205 203 203 204 202 202 203 200 195 192 190 188 186 185 184 183 184 184 185 186 186 186 186 185 182 180 177 176 174 173 172 171 171 171 171 171 170 169 169 170 172 172 171 171 172 172 171 167 163 158 155 153 150 148
225 221 221 220 215 212 210 206 202 200 201 203 204 204 203 202 201 200 199 198 196 193 192 190 189 188 188 188 187 185 183 181 179 177 175 174 173 172 171 171 172 172 172 172 171 170 171 172 173 173 174 173 172 173 173 168 163 160 157 155 154 150
225 223 223 219 215 215 214 208 203 203 203 202 204 204 202 202 202 202 202 202 201 199 197 195 193 190 188 187 185 183 181 179 177 176 174 173 172 171 171 172 173 172 172 173 172 172 172 172 172 174 175 174 173 172 171 168 163 161 159 157 157 155
231 228 226 223 221 219 216 212 209 208 205 202 201 202 201 201 200 200 200 200 200 199 198 195 192 188 186 184 183 182 180 178 176 175 175 173 172 172 173 173 174 173 173 174 174 173 173 173 173 175 176 175 174 171 169 167 163 161 160 160 160 159
229 229 227 225 224 218 214 212 209 206 203 200 200 199 198 198 197 197 198 198 197 197 195 192 189 186 184 183 182 181 179 178 177 176 175 175 174 175 175 175 175 174 174 175 176 174 174 174 174 176 177 176 174 170 168 167 165 165 163 162 164 161
232 235 233 227 219 214 212 209 204 200 198 198 198 197 195 195 194 195 196 196 195 195 193 190 187 185 185 183 182 180 179 178 178 177 176 175 175 176 176 176 177 176 175 175 177 176 174 175 177 178 177 177 175 171 170 168 166 166 165 165 166 156
244 243 237 225 214 212 211 205 200 196 193 194 195 195 194 193 194 196 196 196 195 194 191 190 188 186 185 184 182 181 180 180 179 178 177 177 176 176 177 177 177 178 177 176 177 178 176 177 180 179 177 178 176 173 172 169 167 169 168 164 158 147
239 237 227 216 211 212 208 202 197 192 190 192 193 192 193 194 195 197 197 198 197 195 193 192 191 189 186 185 184 182 181 181 180 179 179 179 178 177 178 179 177 177 178 178 179 181 181 180 182 181 178 178 177 175 174 173 171 171 168 159 150 148
223 216 208 205 206 206 203 199 194 190 190 191 191 192 194 196 198 200 200 200 199 197 196 195 193 192 189 186 185 184 182 182 181 180 180 180 180 178 178 179 177 176 177 179 180 182 184 183 183 182 179 177 178 178 178 178 176 170 164 155 152 160
202 193 196 205 206 202 198 195 192 190 192 192 192 195 199 201 203 203 203 203 201 199 199 197 195 194 191 188 186 184 183 182 181 179 179 179 180 179 178 178 178 177 176 178 180 182 184 185 184 183 181 178 179 182 183 183 180 168 159 156 160 170
199 198 205 211 205 198 195 192 190 191 194 194 196 202 205 205 204 203 202 202 201 200 199 198 197 195 192 189 187 185 184 184 182 181 180 179 179 178 176 177 178 177 177 178 180 182 183 185 185 184 184 182 180 185 188 185 178 169 163 164 167 172
190 195 204 205 199 196 194 191 190 193 194 197 203 209 209 206 204 203 201 201 200 199 198 197 197 195 192 190 188 186 184 183 183 182 181 179 178 177 176 176 177 177 176 177 180 182 183 184 184 183 186 188 186 187 188 184 178 175 174 174 172 175
166 174 186 189 193 196 194 192 193 194 197 203 210 213 210 207 205 204 202 201 200 199 199 197 196 195 193 191 190 187 185 183 183 183 182 180 178 177 176 176 177 177 176 176 179 182 183 184 185 183 184 188 191 190 188 188 189 186 181 181 180 181
156 160 172 181 188 194 195 196 195 195 201 208 211 210 208 206 205 202 201 201 200 199 199 197 196 196 194 192 191 188 185 184 183 182 182 182 180 178 177 178 179 179 178 178 180 183 185 186 187 186 186 188 191 193 192 195 200 196 188 186 186 186
157 156 161 174 186 193 197 199 198 198 203 207 208 208 206 203 201 201 200 200 200 199 199 197 196 197 196 194 193 190 188 186 184 183 183 183 183 182 180 180 181 182 183 183 183 185 187 188 189 189 189 190 193 195 198 201 202 202 200 195 190 187
151 155 157 166 183 192 196 201 202 204 207 207 205 206 205 201 199 198 198 199 199 199 198 196 195 196 197 196 196 194 193 190 187 186 185 185 185 186 185 184 184 185 187 188 188 188 188 189 191 192 194 196 196 198 202 203 201 201 203 196 187 184
150 156 160 167 181 190 196 199 203 208 209 207 204 203 202 200 198 197 197 198 198 198 198 197 195 195 196 196 196 196 196 194 192 189 187 187 187 187 187 187 186 186 189 191 192 192 191 192 193 195 199 201 200 201 205 204 202 202 200 193 188 187
157 162 168 174 179 187 193 196 199 205 207 205 204 201 199 199 199 198 198 198 198 199 199 199 198 196 196 196 196 197 197 196 194 194 193 194 193 192 192 192 192 193 195 195 194 193 192 194 199 203 207 209 207 208 209 206 203 202 200 196 192 187
165 169 174 177 179 186 191 193 197 203 205 204 203 200 197 197 197 198 199 199 200 200 199 199 200 199 198 197 197 198 200 200 199 199 200 201 201 200 201 201 202 203 203 202 201 198 196 200 209 214 214 215 214 214 214 210 206 203 200 197 193 187
164 169 171 176 183 189 191 191 194 199 202 203 203 200 199 197 194 195 197 198 199 200 200 200 200 201 201 200 198 199 201 203 204 204 204 205 206 206 207 208 209 211 210 209 209 207 207 216 225 222 214 213 213 213 212 210 207 202 198 195 193 190
155 160 170 184 189 192 194 192 192 195 199 202 203 202 203 200 195 194 197 200 202 203 202 201 201 202 202 201 200 199 199 201 205 208 210 211 210 210 211 212 214 216 216 215 214 212 213 222 227 219 212 210 209 207 206 204 201 199 198 197 197 199
153 163 187 197 195 196 197 195 194 195 198 201 203 205 206 205 202 200 201 203 205 205 204 203 202 201 201 200 201 201 200 200 202 206 211 215 216 215 215 216 217 219 219 219 218 216 216 220 217 209 207 205 202 200 199 198 197 199 199 197 201 209
158 173 190 198 199 200 202 200 198 197 198 201 204 207 210 211 211 211 210 208 206 204 204 204 203 202 202 202 201 202 202 202 201 202 205 209 213 217 219 220 222 223 223 222 221 219 219 219 212 204 202 201 199 198 198 197 197 200 202 200 203 213
161 168 180 190 195 199 204 205 206 205 203 204 206 210 214 216 217 219 219 216 212 209 207 206 206 205 205 205 204 204 204 205 206 205 201 198 199 206 213 218 222 225 224 222 218 215 215 214 209 204 203 202 200 201 200 197 194 199 207 209 207 213
153 158 172 182 186 196 205 211 215 215 211 210 210 212 216 218 219 221 224 223 221 217 214 212 211 209 208 208 207 207 208 209 210 209 206 202 199 200 204 208 212 217 220 219 216 214 214 212 208 205 205 204 203 202 199 194 192 197 207 213 211 213
145 151 165 172 180 198 211 219 228 227 221 219 218 217 219 221 221 222 223 224 224 223 221 219 217 215 213 213 212 212 212 212 212 212 211 209 208 207 206 205 205 208 212 215 217 215 213 210 206 204 205 206 206 203 200 201 203 206 211 216 216 214